Location: Hamburg
(53.5500°N, 10.0000°E)
Time: 21:01:26
(UTC+01:00)

A-11 Canister half - All Passes

Search period start: 31 October 2014 00:00
Search period end: 10 November 2014 00:00
Orbit: 1525 x 1685 km, 47.3° (Epoch: 30 October)

Date Brightness Start Highest point End Pass type
(mag) Time Alt. Az. Time Alt. Az. Time Alt. Az.
31 Oct - 06:34:06 10° SSE 06:37:47 13° SE 06:41:25 10° ESE visible
31 Oct - 08:32:06 10° SSW 08:40:32 36° SSE 08:48:45 10° E daylight
31 Oct - 10:35:08 10° WSW 10:44:22 58° S 10:53:24 10° E daylight
31 Oct - 12:39:31 10° W 12:48:35 55° SSW 12:57:32 10° ESE daylight
31 Oct - 14:44:24 10° W 14:52:13 32° SW 15:00:00 10° SSE daylight
01 Nov - 06:13:15 10° SE 06:16:22 12° SE 06:19:27 10° ESE visible
01 Nov - 08:10:41 10° SSW 08:19:04 35° SE 08:27:14 10° E daylight
01 Nov - 10:13:37 10° WSW 10:22:52 57° S 10:31:54 10° E daylight
01 Nov - 12:17:59 10° W 12:27:06 56° SSW 12:36:03 10° ESE daylight
01 Nov - 14:22:51 10° W 14:30:46 33° SW 14:38:39 10° SSE daylight
02 Nov - 05:52:34 10° SE 05:54:58 11° SE 05:57:20 10° ESE visible
02 Nov - 07:49:17 10° SSW 07:57:36 34° SE 08:05:42 10° E daylight
02 Nov - 09:52:07 10° WSW 10:01:23 57° SSE 10:10:24 10° E daylight
02 Nov - 11:56:27 10° W 12:05:37 57° SSW 12:14:35 10° ESE daylight
02 Nov - 14:01:18 10° W 14:09:20 34° SW 14:17:17 10° SSE daylight
02 Nov - 16:09:58 10° WSW 16:11:51 11° WSW 16:13:45 10° SW daylight
03 Nov - 05:32:17 10° SE 05:33:33 10° ESE 05:34:48 10° ESE visible
03 Nov - 07:27:54 10° SSW 07:36:08 33° SE 07:44:10 10° E daylight
03 Nov - 09:30:36 10° WSW 09:39:53 56° SSE 09:48:55 10° E daylight
03 Nov - 11:34:55 10° W 11:44:07 57° S 11:53:07 10° ESE daylight
03 Nov - 13:39:44 10° W 13:47:52 35° SW 13:55:55 10° SSE daylight
03 Nov - 15:47:42 10° WSW 15:50:28 12° SW 15:53:14 10° SW daylight
04 Nov - 07:06:31 10° SSW 07:14:40 32° SE 07:22:38 10° E daylight
04 Nov - 09:09:06 10° WSW 09:18:23 55° SSE 09:27:25 10° E daylight
04 Nov - 11:13:23 10° W 11:22:37 58° S 11:31:39 10° ESE daylight
04 Nov - 13:18:11 10° W 13:26:25 36° SSW 13:34:33 10° SSE daylight
04 Nov - 15:25:40 10° WSW 15:29:04 13° SW 15:32:28 10° SSW daylight
05 Nov - 06:45:08 10° SSW 06:53:13 31° SE 07:01:05 10° E visible
05 Nov - 08:47:36 10° WSW 08:56:53 55° SSE 09:05:55 10° E daylight
05 Nov - 10:51:52 10° W 11:01:08 59° S 11:10:10 10° ESE daylight
05 Nov - 12:56:38 10° W 13:04:58 37° SSW 13:13:10 10° SSE daylight
05 Nov - 15:03:45 10° W 15:07:40 13° SW 15:11:35 10° SSW daylight
06 Nov - 06:23:46 10° SSW 06:31:45 30° SE 06:39:33 10° E visible
06 Nov - 08:26:05 10° WSW 08:35:23 54° SSE 08:44:25 10° E daylight
06 Nov - 10:30:19 10° W 10:39:38 59° S 10:48:42 10° ESE daylight
06 Nov - 12:35:05 10° W 12:43:30 38° SSW 12:51:47 10° SSE daylight
06 Nov - 14:41:54 10° W 14:46:16 14° SW 14:50:37 10° SSW daylight
07 Nov - 06:02:24 10° SSW 06:10:18 29° SE 06:17:59 10° E visible
07 Nov - 08:04:35 10° SW 08:13:53 53° SSE 08:22:55 10° E daylight
07 Nov - 10:08:47 10° W 10:18:08 60° S 10:27:13 10° ESE daylight
07 Nov - 12:13:32 10° W 12:22:03 40° SSW 12:30:24 10° SE daylight
07 Nov - 14:20:06 10° W 14:24:51 15° SW 14:29:36 10° SSW daylight
08 Nov - 05:41:03 10° SSW 05:48:50 28° SE 05:56:26 10° E visible
08 Nov - 07:43:05 10° SW 07:52:24 52° SSE 08:01:25 10° E daylight
08 Nov - 09:47:15 10° W 09:56:38 60° S 10:05:44 10° ESE daylight
08 Nov - 11:51:59 10° W 12:00:35 41° SSW 12:09:00 10° SE daylight
08 Nov - 13:58:20 10° W 14:03:27 16° SW 14:08:32 10° SSW daylight
09 Nov - 05:19:42 10° S 05:27:23 27° SE 05:34:52 10° E visible
09 Nov - 07:21:36 10° SW 07:30:54 51° SSE 07:39:55 10° E daylight
09 Nov - 09:25:43 10° W 09:35:08 60° S 09:44:16 10° ESE daylight
09 Nov - 11:30:26 10° W 11:39:07 42° SSW 11:47:36 10° SE daylight
09 Nov - 13:36:36 10° W 13:42:02 17° SW 13:47:26 10° SSW daylight
